Zurück zum Katalog

ARIANE 6004 ULPM

AktivMEO
NORAD 67161·ROCKET BODY·🇪🇺 EU
Dieser Satellitenname wurde noch nicht durch offizielle Quellen bestätigt.

Gestartet Dec 17, 2025 von Guiana Space Centre

Loading…

Nächste Überflüge (nächste 24 Stunden)

TLE

AktuellSource: Space-Track

Epoche: Sep 12, 2026, 23:11 UTC

1 67161U 25302B   26255.96663635  .00000006  00000-0  00000-0 0  9993
2 67161  54.3992  99.3160 0004231 268.9990  91.0374  1.72972845  4683

Verfolge ARIANE 6004 ULPM in Echtzeit mit AllMySat

Download on the App Store